Baker, MT

11:57 PM MST on February 06, 2016 (GMT -0700)
Baker Municipal

Weather History for KBHK - October, 2013

Change the Weather History Date:

Friday, October 4, 2013

  Actual Average Record
Temperature  
Mean Temperature 37 °F -  
Max Temperature 41 °F 63 °F 91 °F (2011)
Min Temperature 33 °F 18 °F 26 °F (1999)
Degree Days  
Heating Degree Days 28    
Moisture  
Dew Point 32 °F    
Average Humidity 85    
Maximum Humidity 93    
Minimum Humidity 73    
Precipitation  
Precipitation 0.29 in - - ()
Sea Level Pressure  
Sea Level Pressure 30.31 in    
Wind  
Wind Speed 14 mph (North)    
Max Wind Speed 22 mph    
Max Gust Speed 33 mph    
Visibility 7 miles    
Events Rain , Snow    
Averages and records for this station are not official NWS values.
T = Trace of Precipitation, MM = Missing Value Source: NWS Daily Summary

Daily Weather History Graph

Daily Weather History Graph

Search for Another Location

Airport or City:

Trip Planner

Search our weather history database for the weather conditions in past years. The results will help you decide how hot, cold, wet, or windy it might be!

Date:

Astronomy

Oct. 04, 2013 Rise Set
Actual Time 6:59 AM MDT 6:30 PM MDT
Civil Twilight 6:29 AM MDT 7:00 PM MDT
Nautical Twilight 5:55 AM MDT 7:35 PM MDT
Astronomical Twilight 5:19 AM MDT 8:10 PM MDT
Moon 6:38 AM MDT (10/4) 6:12 PM MDT (10/4)
Length of Visible Light 12h 30m
Length of Day
11h 30m
Waning Crescent, 0% of the Moon is Illuminated
Oct 4
Waning Crescent
Oct 4
New
Oct 11
First Quarter
Oct 18
Full
Oct 26
Last Quarter

Hourly Weather History & Observations

Time (MDT) Temp. Windchill Dew Point Humidity Pressure Visibility Wind Dir Wind Speed Gust Speed Precip Events Conditions
12:51 AM 41.0 °F 34.3 °F 35.1 °F 79% 30.25 in 10.0 mi NNE 11.5 mph - 0.00 in Rain Light Rain
1:51 AM 41.0 °F 34.3 °F 35.1 °F 79% 30.27 in 10.0 mi NNE 11.5 mph - 0.01 in   Overcast
2:51 AM 39.9 °F 33.4 °F 34.0 °F 79% 30.27 in 10.0 mi NNE 10.4 mph - N/A   Overcast
3:42 AM 39.2 °F 31.2 °F 35.6 °F 87% 30.23 in 10.0 mi North 13.8 mph - 0.01 in   Overcast
3:51 AM 39.0 °F 30.6 °F 34.0 °F 82% 30.26 in 10.0 mi North 15.0 mph - 0.01 in   Overcast
4:51 AM 37.9 °F 29.6 °F 34.0 °F 86% 30.27 in 10.0 mi North 13.8 mph - N/A   Overcast
5:07 AM 39.2 °F 30.5 °F 33.8 °F 81% 30.23 in 10.0 mi North 16.1 mph - N/A   Overcast
5:35 AM 37.4 °F 28.9 °F 33.8 °F 87% 30.25 in 6.0 mi North 13.8 mph - 0.00 in Rain Light Rain
5:51 AM 37.9 °F 30.5 °F 35.1 °F 89% 30.30 in 10.0 mi North 11.5 mph - 0.00 in   Overcast
6:51 AM 37.9 °F 28.2 °F 35.1 °F 89% 30.31 in 4.0 mi North 18.4 mph - 0.01 in Rain Light Rain
7:24 AM 37.4 °F 28.2 °F 33.8 °F 87% 30.27 in 7.0 mi NNE 16.1 mph - 0.04 in Rain Light Rain
7:33 AM 37.4 °F 30.3 °F 33.8 °F 87% 30.27 in 7.0 mi North 10.4 mph 21.9 mph 0.05 in Rain Light Rain
7:51 AM 37.9 °F 30.5 °F 35.1 °F 89% 30.31 in 9.0 mi NE 11.5 mph - 0.06 in Rain Light Rain
8:17 AM 37.4 °F 28.9 °F 33.8 °F 87% 30.29 in 10.0 mi NNE 13.8 mph 21.9 mph 0.00 in Rain Light Rain
8:35 AM 37.4 °F 28.5 °F 35.6 °F 93% 30.28 in 10.0 mi NNE 15.0 mph - 0.01 in Rain Light Rain
8:41 AM 37.4 °F 27.8 °F 33.8 °F 87% 30.28 in 9.0 mi NNE 17.3 mph 20.7 mph 0.01 in Rain Light Rain
8:51 AM 37.0 °F 27.0 °F 33.1 °F 86% 30.33 in 6.0 mi NNE 18.4 mph 25.3 mph 0.02 in Rain Rain
9:51 AM 36.0 °F 26.7 °F 33.1 °F 89% 30.37 in 6.0 mi NNE 15.0 mph - 0.03 in Rain Rain
9:57 AM 35.6 °F 26.2 °F 32.0 °F 87% 30.31 in 5.0 mi NNE 15.0 mph - 0.01 in Rain Rain
10:18 AM 35.6 °F 27.1 °F 32.0 °F 87% 30.32 in 2.0 mi North 12.7 mph - 0.03 in Snow Light Snow
10:42 AM 35.6 °F 27.5 °F 32.0 °F 87% 30.32 in 3.0 mi NNE 11.5 mph 20.7 mph 0.05 in Snow Light Snow
10:51 AM 34.0 °F 26.0 °F 30.9 °F 89% 30.38 in 2.0 mi North 10.4 mph - 0.05 in Snow Light Snow
11:29 AM 33.8 °F 23.9 °F 30.2 °F 87% 30.31 in 1.8 mi NNE 15.0 mph - 0.02 in Snow Light Snow
11:36 AM 33.8 °F 24.8 °F 30.2 °F 87% 30.31 in 2.0 mi North 12.7 mph - 0.02 in Snow Light Snow
11:42 AM 33.8 °F 25.3 °F 30.2 °F 87% 30.31 in 1.5 mi North 11.5 mph - 0.02 in Snow Light Snow
11:51 AM 33.1 °F 24.9 °F 30.9 °F 92% 30.38 in 1.5 mi North 10.4 mph - 0.03 in Snow Light Snow
12:02 PM 33.8 °F 24.3 °F 30.2 °F 87% 30.31 in 2.0 mi North 13.8 mph - 0.00 in Snow Light Snow
12:28 PM 35.6 °F 28.6 °F 32.0 °F 87% 30.32 in 3.0 mi North 9.2 mph - 0.01 in Snow Light Snow
12:37 PM 35.6 °F 28.0 °F 32.0 °F 87% 30.32 in 3.0 mi North 10.4 mph - 0.01 in Snow Light Snow
12:51 PM 35.1 °F 25.9 °F 32.0 °F 89% 30.38 in 5.0 mi North 13.8 mph - 0.02 in Snow Light Snow
1:00 PM 35.6 °F 26.2 °F 32.0 °F 87% 30.32 in 4.0 mi North 15.0 mph 21.9 mph 0.00 in Snow Light Snow
1:15 PM 35.6 °F 27.1 °F 32.0 °F 87% 30.32 in 2.5 mi North 12.7 mph - 0.01 in Snow Light Snow
1:51 PM 35.1 °F 25.5 °F 32.0 °F 89% 30.35 in 4.0 mi North 15.0 mph - 0.02 in Snow Light Snow
2:32 PM 35.6 °F 25.9 °F 32.0 °F 87% 30.29 in 4.0 mi North 16.1 mph 23.0 mph 0.01 in Snow Light Snow
2:43 PM 35.6 °F 25.9 °F 32.0 °F 87% 30.29 in 6.0 mi North 16.1 mph - 0.01 in Snow Light Snow
2:51 PM 35.1 °F 25.2 °F 32.0 °F 89% 30.35 in 9.0 mi North 16.1 mph 24.2 mph 0.01 in Snow Light Snow
2:57 PM 35.6 °F 25.9 °F 32.0 °F 87% 30.29 in 9.0 mi North 16.1 mph 24.2 mph 0.00 in   Overcast
3:12 PM 35.6 °F 25.9 °F 32.0 °F 87% 30.28 in 7.0 mi North 16.1 mph 21.9 mph 0.00 in Snow Light Snow
3:51 PM 35.1 °F 24.5 °F 32.0 °F 89% 30.34 in 5.0 mi North 18.4 mph 25.3 mph 0.02 in Snow Light Snow
4:39 PM 35.6 °F 25.2 °F 32.0 °F 87% 30.27 in 9.0 mi North 18.4 mph - 0.00 in   Overcast
4:51 PM 35.1 °F 25.2 °F 32.0 °F 89% 30.34 in 8.0 mi North 16.1 mph - 0.00 in Snow Light Snow
5:21 PM 35.6 °F 25.9 °F 30.2 °F 81% 30.28 in 10.0 mi NNW 16.1 mph 25.3 mph 0.00 in   Overcast
5:51 PM 35.1 °F 23.8 °F 30.0 °F 82% 30.33 in 9.0 mi NNW 20.7 mph 27.6 mph 0.00 in Snow Light Snow
6:51 PM 35.1 °F 24.5 °F 30.9 °F 85% 30.33 in 10.0 mi NNW 18.4 mph 24.2 mph 0.00 in   Overcast
7:37 PM 35.6 °F 24.5 °F 28.4 °F 75% 30.26 in 10.0 mi NNW 20.7 mph 32.2 mph N/A   Overcast
7:51 PM 34.0 °F 22.1 °F 28.0 °F 79% 30.32 in 10.0 mi NNW 21.9 mph 33.4 mph N/A   Overcast
8:51 PM 34.0 °F 23.8 °F 26.1 °F 73% 30.34 in 10.0 mi NNW 16.1 mph 26.5 mph N/A   Overcast
9:51 PM 34.0 °F 25.0 °F 26.1 °F 73% 30.35 in 10.0 mi NNW 12.7 mph - N/A   Overcast
10:51 PM 34.0 °F 24.2 °F 26.1 °F 73% 30.33 in 10.0 mi NW 15.0 mph - N/A   Overcast
11:51 PM 34.0 °F 24.2 °F 26.1 °F 73% 30.32 in 10.0 mi NW 15.0 mph - N/A   Overcast